Weather History for Harlingen, TX

Change the Weather History Date:

Saturday, March 8, 2014

  Actual Average Record
Temperature  
Mean Temperature 70 °F 67 °F  
Max Temperature 80 °F 78 °F 91 °F (2011)
Min Temperature 59 °F 56 °F 34 °F (1955)
Degree Days  
Heating Degree Days 0 2  
Month to date heating degree days 65 20  
Since 1 July heating degree days 876 588  
Cooling Degree Days 5 4  
Month to date cooling degree days 22 32  
Year to date cooling degree days 133 157  
Growing Degree Days 20 (Base 50)    
Moisture  
Dew Point 65 °F    
Average Humidity 82    
Maximum Humidity 100    
Minimum Humidity 64    
Precipitation  
Precipitation 0.06 in 0.03 in 2.50 in (1938)
Month to date precipitation 0.25 0.30  
Year to date precipitation 1.25 2.77  
Sea Level Pressure  
Sea Level Pressure 29.93 in    
Wind  
Wind Speed 11 mph (SE)    
Max Wind Speed 22 mph    
Max Gust Speed 26 mph    
Visibility 10 miles    
Events Rain    
T = Trace of Precipitation, MM = Missing Value Source: NWS Daily Summary

Daily Weather History Graph

Daily Weather History Graph

Search for Another Location

Airport:

Trip Planner

Search our weather history database for the weather conditions in past years. The results will help you decide how hot, cold, wet, or windy it might be!

Date:

Astronomy

Mar. 08, 2014 Rise Set
Actual Time 6:47 AM CST 6:35 PM CST
Civil Twilight 6:24 AM CST 6:58 PM CST
Nautical Twilight 5:57 AM CST 7:25 PM CST
Astronomical Twilight 5:30 AM CST 7:52 PM CST
Moon 12:04 PM CST (3/8) 1:00 AM CST (3/8)
Length of Visible Light 12h 34m
Length of Day
11h 48m
First Quarter, 52% of the Moon is Illuminated
Mar 8
First Quarter
Mar 16
Full
Mar 23
Last Quarter
Mar 30
New
Apr 7
First Quarter

Hourly Weather History & Observations

Time (CST) Temp. Heat Index Dew Point Humidity Pressure Visibility Wind Dir Wind Speed Gust Speed Precip Events Conditions
12:52 AM 63.0 °F - 59.0 °F 87% 29.89 in 10.0 mi SE 6.9 mph - N/A   Overcast
1:52 AM 61.0 °F - 57.9 °F 90% 29.88 in 10.0 mi East 4.6 mph - N/A   Overcast
2:52 AM 61.0 °F - 59.0 °F 93% 29.87 in 10.0 mi East 6.9 mph - N/A   Mostly Cloudy
3:52 AM 63.0 °F - 60.1 °F 90% 29.87 in 10.0 mi East 5.8 mph - N/A   Overcast
4:52 AM 64.0 °F - 60.1 °F 87% 29.87 in 10.0 mi ESE 6.9 mph - N/A   Overcast
5:25 AM 64.4 °F - 60.8 °F 88% 29.87 in 10.0 mi East 5.8 mph - N/A   Overcast
5:52 AM 64.9 °F - 62.1 °F 90% 29.88 in 10.0 mi SE 8.1 mph - 0.00 in Rain Light Rain
6:40 AM 64.4 °F - 62.6 °F 94% 29.88 in 10.0 mi SE 9.2 mph - 0.00 in   Overcast
6:52 AM 64.9 °F - 63.0 °F 93% 29.88 in 10.0 mi SE 11.5 mph - 0.00 in   Mostly Cloudy
7:00 AM 66.2 °F - 64.4 °F 94% 29.88 in 9.0 mi SSE 12.7 mph - N/A   Overcast
7:52 AM 68.0 °F - 64.9 °F 90% 29.90 in 10.0 mi SSE 11.5 mph - N/A   Mostly Cloudy
8:52 AM 71.1 °F - 66.0 °F 84% 29.92 in 10.0 mi SSE 11.5 mph - N/A   Overcast
9:01 AM 71.6 °F - 66.2 °F 83% 29.92 in 10.0 mi SSE 12.7 mph 20.7 mph N/A   Overcast
9:11 AM 71.6 °F - 66.2 °F 83% 29.92 in 10.0 mi SSE 17.3 mph - N/A   Overcast
9:20 AM 73.4 °F - 66.2 °F 78% 29.93 in 10.0 mi SSE 15.0 mph - N/A   Overcast
9:31 AM 73.4 °F - 66.2 °F 78% 29.93 in 10.0 mi SSE 16.1 mph 23.0 mph N/A   Overcast
9:44 AM 71.6 °F - 66.2 °F 83% 29.93 in 10.0 mi South 17.3 mph - 0.00 in Rain Light Rain
9:52 AM 73.9 °F - 66.0 °F 76% 29.93 in 10.0 mi SSE 13.8 mph - 0.00 in   Overcast
10:19 AM 75.2 °F - 66.2 °F 73% 29.93 in 10.0 mi SSE 18.4 mph - N/A   Overcast
10:52 AM 77.0 °F - 66.0 °F 69% 29.93 in 10.0 mi South 20.7 mph 26.5 mph N/A   Overcast
11:00 AM 77.0 °F - 66.2 °F 69% 29.92 in 10.0 mi SSE 16.1 mph 26.5 mph N/A   Overcast
11:18 AM 78.8 °F - 66.2 °F 65% 29.92 in 10.0 mi SSE 18.4 mph - N/A   Overcast
11:27 AM 77.0 °F - 66.2 °F 69% 29.92 in 10.0 mi SSE 18.4 mph 24.2 mph 0.00 in Rain Light Rain
11:35 AM 80.6 °F 82.7 °F 66.2 °F 61% 29.92 in 10.0 mi SSE 17.3 mph 25.3 mph 0.00 in   Mostly Cloudy
11:52 AM 77.0 °F - 64.9 °F 66% 29.91 in 10.0 mi SSE 19.6 mph 24.2 mph 0.00 in   Mostly Cloudy
11:59 AM 77.0 °F - 64.4 °F 65% 29.91 in 10.0 mi South 16.1 mph - N/A   Mostly Cloudy
12:10 PM 78.8 °F - 64.4 °F 61% 29.90 in 10.0 mi SSE 16.1 mph 25.3 mph N/A   Overcast
12:26 PM 77.0 °F - 66.2 °F 69% 29.90 in 10.0 mi SSE 13.8 mph - N/A   Overcast
12:52 PM 79.0 °F - 66.0 °F 64% 29.90 in 10.0 mi South 18.4 mph 24.2 mph N/A   Overcast
1:52 PM 77.0 °F - 66.0 °F 69% 29.89 in 10.0 mi SE 16.1 mph - 0.00 in   Overcast
2:31 PM 75.2 °F - 66.2 °F 73% 29.88 in 10.0 mi ESE 15.0 mph 21.9 mph 0.00 in Rain Light Rain
2:52 PM 75.0 °F - 66.0 °F 73% 29.88 in 10.0 mi ESE 16.1 mph - 0.00 in   Overcast
3:08 PM 73.4 °F - 66.2 °F 78% 29.88 in 10.0 mi ESE 17.3 mph - 0.00 in Rain Light Rain
3:50 PM 69.8 °F - 66.2 °F 88% 29.90 in 6.0 mi East 11.5 mph - 0.01 in Rain Light Rain
3:52 PM 70.0 °F - 66.9 °F 90% 29.90 in 7.0 mi ESE 11.5 mph - 0.01 in Rain Light Rain
4:42 PM 71.6 °F - 68.0 °F 88% 29.91 in 8.0 mi ESE 11.5 mph - 0.01 in Rain Light Rain
4:52 PM 70.0 °F - 66.9 °F 90% 29.92 in 4.0 mi ESE 15.0 mph - 0.03 in Rain Rain
5:06 PM 69.8 °F - 66.2 °F 88% 29.92 in 9.0 mi ESE 15.0 mph - 0.02 in Rain Light Rain
5:52 PM 69.1 °F - 66.9 °F 93% 29.93 in 10.0 mi East 13.8 mph - 0.02 in   Overcast
6:52 PM 68.0 °F - 66.0 °F 93% 29.96 in 9.0 mi East 13.8 mph - N/A   Overcast
7:00 PM 68.0 °F - 66.2 °F 94% 29.96 in 8.0 mi East 12.7 mph - N/A   Overcast
7:09 PM 68.0 °F - 66.2 °F 94% 29.97 in 8.0 mi East 8.1 mph - 0.00 in Rain Light Rain
7:24 PM 68.0 °F - 66.2 °F 94% 29.97 in 9.0 mi East 10.4 mph - 0.00 in   Overcast
7:32 PM 66.2 °F - 66.2 °F 100% 29.98 in 9.0 mi East 9.2 mph - 0.00 in   Overcast
7:40 PM 66.2 °F - 66.2 °F 100% 29.98 in 8.0 mi East 8.1 mph - 0.00 in   Overcast
7:52 PM 66.9 °F - 66.0 °F 97% 29.99 in 9.0 mi East 6.9 mph - 0.00 in   Overcast
7:59 PM 66.2 °F - 66.2 °F 100% 29.99 in 9.0 mi East 6.9 mph - N/A   Overcast
8:52 PM 68.0 °F - 66.0 °F 93% 30.01 in 10.0 mi ESE 8.1 mph - N/A   Overcast
9:52 PM 68.0 °F - 66.0 °F 93% 30.01 in 10.0 mi East 9.2 mph - N/A   Overcast
10:52 PM 68.0 °F - 66.0 °F 93% 30.04 in 10.0 mi ENE 6.9 mph - 0.00 in Rain Light Rain
11:43 PM 68.0 °F - 66.2 °F 94% 30.04 in 10.0 mi East 6.9 mph - 0.00 in   Overcast
11:52 PM 68.0 °F - 66.0 °F 93% 30.04 in 10.0 mi East 6.9 mph - 0.00 in   Overcast